x

Portage Canal, Mi (pclm4) Weather Station

8:40am - Sun 14th Feb 2016 All times are CST. -6 hours from GMT.

  • Wind
    3mph, 11mph gusts
  • Air Temp 8°f
  • Sea Pressure 1024.4mb
  • Portage Canal, Mi
  • Portage Canal, Mi

More Historic Weather Station data

Upgrade to MSW Pro to gain access to the past 30 days of data for over 8000 Wavebouys and Weather Stations around the globe.

Join Pro

Comparision Forecast

View Surf forecast
   
Sun 02/14 8:40am 3 11 mph 1024.4mb 8f
8:30am 2 13 mph 1024.4mb 8f
8:20am 3 15 mph 1024.7mb 6f
8:10am 2 25 mph 1024.7mb 5f
8:00am 2 17 mph 1024.7mb 5f
7:40am 2 11 mph 1025.1mb 4f
7:30am 1 16 mph 1025.1mb 4f
7:20am 2 10 mph 1025.4mb 4f
7:10am 2 17 mph 1025.4mb 4f
7:00am 3 15 mph 1025.4mb 3f
6:40am 3 11 mph 1025.7mb 3f
6:30am 2 14 mph 1025.7mb 3f
6:20am 2 11 mph 1026.1mb 3f
6:10am 5 23 mph 1026.4mb 3f
6:00am 2 16 mph 1026.4mb 3f
5:40am 2 21 mph 1026.8mb 4f
5:30am 2 22 mph 1027.1mb 4f
5:20am 2 11 mph 1027.1mb 4f
5:10am 2 14 mph 1027.1mb 4f
5:00am 2 11 mph 1027.4mb 3f
4:40am  -  10 mph 1027.4mb 3f
4:30am 1 11 mph 1027.4mb 3f
4:20am 1 11 mph 1027.8mb 4f
4:10am  -  9 mph 1027.8mb 4f
4:00am 2 20 mph 1027.8mb 4f
3:40am 3 15 mph 1027.8mb 4f
3:30am 1 17 mph 1027.8mb 4f
3:20am 1 16 mph 1027.8mb 4f
3:10am 2 14 mph 1027.8mb 3f
3:00am 1 11 mph 1028.1mb 3f
2:40am 1 13 mph 1028.1mb 4f
2:30am 1 18 mph 1028.1mb 4f
2:20am  -  11 mph 1028.1mb 4f
2:10am  -  11 mph 1028.4mb 4f
2:00am 1 13 mph 1028.4mb 4f
1:40am  -  17 mph 1028.4mb 4f
1:30am  -  18 mph 1028.4mb 5f
1:20am 3 20 mph 1028.4mb 5f
1:10am 2 28 mph 1028.4mb 5f
1:00am 2 16 mph 1028.8mb 5f
12:40am  -  24 mph 1028.8mb 6f
12:30am 3 36 mph 1029.1mb 6f
12:24am 5 36 mph 1029.1mb 6f
12:20am 3 23 mph 1029.1mb 6f
12:10am 3 18 mph 1029.5mb 7f
12:00am 3 16 mph 1029.5mb 6f
Sat 02/13 11:40pm 5 26 mph 1029.5mb 7f
11:30pm 2 21 mph 1029.5mb 8f
11:20pm 5 29 mph 1029.5mb 9f
11:10pm 5 18 mph 1029.5mb 9f
11:00pm 5 28 mph 1029.8mb 9f
10:40pm 5 25 mph 1029.8mb 8f
10:30pm 2 23 mph 1029.8mb 8f
10:20pm 2 37 mph 1029.8mb 8f
10:10pm  -  25 mph 1029.8mb 8f
10:00pm 3 31 mph 1029.8mb 8f
9:40pm 1 20 mph 1029.8mb 7f
9:30pm 2 32 mph 1029.8mb 7f
9:20pm 5 38 mph 1030.1mb 7f
9:17pm 5 38 mph 1030.1mb 7f
9:10pm 6 23 mph 1030.1mb 7f
9:00pm 6 23 mph 1030.1mb 7f
8:40pm 5 24 mph 1030.5mb 7f
8:30pm 2 15 mph 1030.5mb 7f
8:20pm 2 14 mph 1030.5mb 7f
8:10pm 7 30 mph 1030.5mb 7f
8:08pm 3 30 mph 1030.5mb 8f
8:00pm 3 28 mph 1030.8mb 8f
7:40pm 5 24 mph 1030.8mb 10f
7:30pm 1 13 mph 1030.8mb 11f
7:20pm 5 17 mph 1030.8mb 11f
7:10pm 3 13 mph 1031.2mb 10f
7:00pm  -  13 mph 1031.2mb 9f
6:40pm 7 10 mph 1031.2mb 9f
6:30pm  -  8 mph 1031.2mb 9f
6:20pm 6 10 mph 1031.5mb 9f
6:10pm 6 11 mph 1031.5mb 9f
6:00pm 6 15 mph 1031.5mb 9f
5:40pm 9 13 mph 1031.8mb 9f
5:30pm 2 11 mph 1031.8mb 9f
5:20pm 6 11 mph 1031.8mb 9f
5:10pm 9 13 mph 1031.8mb 9f
5:00pm 6 14 mph 1031.8mb 8f
4:40pm 6 10 mph 1031.8mb 8f
4:30pm 6 10 mph 1031.8mb 8f
4:20pm 8 11 mph 1031.8mb 8f
4:10pm 8 14 mph 1031.8mb 8f
4:00pm 6 14 mph 1031.8mb 8f
2:40pm 8 14 mph 1032.2mb 8f
2:30pm 7 11 mph 1032.2mb 9f
2:20pm 5 14 mph 1032.2mb 10f
2:10pm 7 15 mph 1032.2mb 9f
2:00pm 10 17 mph 1032.2mb 8f
1:40pm 8 16 mph 1032.8mb 7f
1:30pm 10 17 mph 1032.5mb 7f
1:20pm 10 15 mph 1032.8mb 7f
1:10pm 11 18 mph 1033.2mb 7f
1:00pm 14 20 mph 1033.2mb 6f
12:40pm 10 18 mph 1033.5mb 7f
12:30pm 13 18 mph 1033.2mb 6f
12:20pm 13 20 mph 1033.2mb 6f
12:10pm 13 20 mph 1033.5mb 6f
12:00pm 11 21 mph 1033.5mb 6f
11:40am 14 20 mph 1033.5mb 5f
11:30am 11 18 mph 1033.9mb 5f
11:20am 10 20 mph 1033.9mb 6f
11:10am 10 17 mph 1033.9mb 5f
11:00am 14 20 mph 1033.9mb 5f
10:40am 14 20 mph 1033.9mb 5f
10:30am 13 21 mph 1033.9mb 5f
10:20am 16 23 mph 1033.9mb 5f
10:10am 14 20 mph 1033.9mb 5f
10:00am 13 20 mph 1033.9mb 4f
9:40am 15 21 mph 1033.5mb 4f
9:30am 11 22 mph 1033.5mb 4f
9:20am 16 22 mph 1033.5mb 4f
9:10am 14 22 mph 1033.2mb 4f
9:00am 16 22 mph 1033.2mb 3f
8:50am 16 23 mph 1033.2mb 3f
7:40am 18 23 mph 1032.8mb 3f
7:30am 17 22 mph 1033.2mb 3f
7:20am 17 24 mph 1032.8mb 3f
7:10am 17 24 mph 1032.8mb 3f
7:00am 20 24 mph 1032.8mb 3f
6:50am 15 23 mph 1032.5mb 3f
6:40am 15 28 mph 1032.5mb 3f
6:30am 17 24 mph 1032.5mb 4f
6:20am 17 23 mph 1032.5mb 3f
6:10am 17 21 mph 1032.2mb 3f
6:00am 17 23 mph 1032.5mb 3f
5:50am 13 24 mph 1032.5mb 3f
5:40am 11 25 mph 1032.2mb 3f
5:30am 16 21 mph 1032.2mb 3f
5:20am 13 22 mph 1032.2mb 3f
5:10am 14 23 mph 1032.2mb 3f
5:00am 17 26 mph 1031.8mb 3f
4:50am 15 23 mph 1031.8mb 3f
4:40am 15 23 mph 1031.8mb 3f
4:30am 18 23 mph 1031.8mb 3f
4:20am 16 22 mph 1031.8mb 3f
4:10am 15 22 mph 1031.8mb 4f
4:00am 17 23 mph 1031.8mb 4f
3:50am 18 23 mph 1031.8mb 4f
3:40am 17 25 mph 1031.8mb 4f
3:30am 20 30 mph 1031.8mb 4f
3:20am 18 24 mph 1031.5mb 4f
3:10am 17 24 mph 1031.5mb 3f
3:00am 17 33 mph 1031.5mb 3f
2:51am 22 33 mph 1031.5mb 4f
2:50am 22 28 mph 1031.5mb 4f
2:40am 18 29 mph 1031.5mb 4f
2:30am 20 28 mph 1031.5mb 4f
2:20am 21 28 mph 1031.5mb 3f
2:10am 20 26 mph 1031.5mb 3f
2:00am 18 29 mph 1031.2mb 3f
1:50am 20 24 mph 1031.2mb 3f
1:14am 23 31 mph 1030.8mb 3f
12:40am 18 30 mph 1030.8mb 3f
12:30am 21 24 mph 1030.8mb 4f
12:20am 20 28 mph 1030.8mb 4f
12:10am 21 29 mph 1030.8mb 4f
12:04am 21 29 mph 1030.5mb 4f
12:00am 15 28 mph 1030.8mb 4f
Fri 02/12 11:50pm 17 25 mph 1030.8mb 3f
11:40pm 17 26 mph 1030.5mb 3f
11:30pm 21 28 mph 1030.5mb 4f
11:20pm 17 30 mph 1030.5mb 4f
11:10pm 20 29 mph 1030.5mb 4f
11:00pm 18 34 mph 1030.1mb 4f
10:52pm 20 32 mph 1030.5mb 4f
10:50pm 21 30 mph 1030.5mb 4f
10:40pm 18 28 mph 1030.5mb 4f
10:30pm 21 34 mph 1030.1mb 4f
10:20pm 20 29 mph 1030.1mb 4f
10:10pm 20 28 mph 1029.8mb 4f
10:00pm 20 32 mph 1029.8mb 4f
9:51pm 20 32 mph 1029.8mb 4f
9:50pm 20 28 mph 1029.8mb 4f
9:40pm 18 26 mph 1029.8mb 5f
9:30pm 18 33 mph 1029.5mb 4f
9:20pm 22 33 mph 1029.5mb 5f
9:10pm 22 33 mph 1029.5mb 5f
9:00pm 23 32 mph 1029.1mb 5f
8:50pm 22 34 mph 1029.1mb 5f
8:40pm 22 34 mph 1029.1mb 5f
8:30pm 21 37 mph 1029.1mb 5f
8:20pm 24 37 mph 1029.1mb 5f
8:10pm 22 34 mph 1029.1mb 5f
8:00pm 25 36 mph 1028.8mb 5f
7:50pm 21 34 mph 1029.1mb 5f
7:37pm 23 31 mph 1028.8mb 5f
6:40pm 23 33 mph 1028.4mb 6f
6:31pm 18 29 mph 1028.1mb 5f
6:30pm 18 31 mph 1028.1mb 5f
6:20pm 21 31 mph 1028.4mb 5f
6:10pm 20 32 mph 1028.4mb 5f
6:00pm 22 36 mph 1028.1mb 5f
5:50pm 20 31 mph 1028.1mb 5f
5:40pm 22 38 mph 1028.1mb 5f
5:30pm 18 30 mph 1027.8mb 5f
5:20pm 24 39 mph 1027.8mb 5f
5:10pm 16 32 mph 1027.8mb 5f
5:00pm 18 31 mph 1027.8mb 5f
4:50pm 21 34 mph 1027.4mb 4f
4:40pm 21 34 mph 1027.1mb 4f
4:30pm 17 31 mph 1027.1mb 4f
4:24pm 17 31 mph 1027.1mb 4f
4:20pm 20 30 mph 1027.1mb 4f
4:10pm 21 31 mph 1027.1mb 4f
4:00pm 20 34 mph 1027.1mb 4f
3:50pm 17 31 mph 1026.8mb 3f
3:40pm 20 34 mph 1026.8mb 3f
3:30pm 20 34 mph 1026.8mb 3f
3:20pm 21 32 mph 1026.4mb 2f
3:10pm 17 33 mph 1026.4mb 3f
3:00pm 22 31 mph 1026.1mb 2f
2:50pm 16 29 mph 1026.1mb 2f
2:40pm 18 22 mph 1025.7mb 1f
2:30pm 18 33 mph 1025.7mb 1f
2:20pm 18 29 mph 1025.7mb 1f
2:10pm 14 24 mph 1025.7mb -
2:00pm 17 29 mph 1026.1mb 1f
1:50pm 21 25 mph 1026.1mb -
1:40pm 21 31 mph 1026.1mb -
1:30pm 20 33 mph 1025.7mb -1f
1:20pm 21 32 mph 1025.7mb -1f
1:12pm 18 32 mph 1025.4mb -
1:10pm 21 28 mph 1025.7mb -
1:00pm 23 32 mph 1025.7mb -
12:50pm 22 32 mph 1025.4mb -
12:40pm 22 36 mph 1025.4mb -
12:30pm 18 26 mph 1025.1mb -
12:20pm 21 28 mph 1025.1mb -1f
12:10pm 23 33 mph 1025.1mb -
12:00pm 22 31 mph 1025.1mb -
11:58am 22 30 mph 1025.1mb -
11:50am 22 36 mph 1025.1mb -
11:40am 25 34 mph 1024.7mb 1f
11:30am 26 38 mph 1024.4mb 1f
11:20am 25
mph
1024.4mb 1f
11:10am 26 39 mph 1024mb 1f
11:00am 26 37 mph 1023.7mb 2f
10:55am 22 31 mph 1024mb 2f
10:50am 25 37 mph 1023.7mb 2f
10:40am 25 34 mph 1023.4mb 2f
10:30am 23 38 mph 1023.4mb 3f
10:20am 22 38 mph 1023mb 3f
10:10am 30 37 mph 1022.4mb 3f
10:00am 23 36 mph 1022.4mb 4f
9:54am 21 30 mph 1022mb 3f
9:50am 25 38 mph 1022mb 3f
9:40am 21 36 mph 1022.4mb 4f
9:30am 24 31 mph 1022mb 4f
9:20am 28
mph
1021.7mb 6f
9:10am 23 29 mph 1021.3mb 6f
9:00am 25 36 mph 1021mb 6f
8:54am 23 30 mph 1021mb 6f
8:50am 24 31 mph 1021mb 6f
8:40am 23 36 mph 1021mb 6f
8:30am 25 38 mph 1020.7mb 6f
8:20am 24 39 mph 1020.3mb 7f
8:10am 25 37 mph 1020.3mb 7f
8:00am 26 36 mph 1020mb 8f
7:52am 22 30 mph 1020mb 8f
7:50am 22 36 mph 1020mb 8f
7:40am 25 36 mph 1019.3mb 9f
7:30am 23 34 mph 1019.3mb 9f
7:20am 22 32 mph 1019.3mb 10f
7:10am 17 30 mph 1019.3mb 9f
7:00am 17 33 mph 1019mb 10f
6:51am 20 29 mph 1019mb 10f
6:40am 24 33 mph 1018.6mb 10f
6:30am 22 33 mph 1018.3mb 11f
6:20am 22 36 mph 1018.3mb 11f
6:10am 26 34 mph 1017.9mb 11f
6:00am 28 37 mph 1017.9mb 12f
5:50am 21 33 mph 1017.6mb 12f
5:40am 22 33 mph 1017.6mb 12f
5:30am 18 36 mph 1017.6mb 13f
5:20am 21 31 mph 1017.3mb 13f
5:10am 17 34 mph 1017.3mb 14f
5:00am 20 34 mph 1017.3mb 14f
4:50am 24 34 mph 1017.3mb 14f
4:48am 22 32 mph 1017.3mb 14f
4:40am 24 36 mph 1016.9mb 14f
4:30am 18 36 mph 1016.9mb 14f
4:20am 21 33 mph 1016.9mb 14f
4:10am 23 33 mph 1016.9mb 14f
4:00am 21 33 mph 1016.9mb 14f
3:50am 23 33 mph 1016.9mb 15f
3:47am 17 30 mph 1016.9mb 15f
3:40am 22 30 mph 1016.9mb 15f
3:30am 18 32 mph 1016.9mb 15f
3:20am 22 33 mph 1016.9mb 15f
3:10am 21 29 mph 1016.9mb 15f
3:00am 18 28 mph 1016.9mb 15f
2:50am 22 30 mph 1017.3mb 15f
2:47am 18 30 mph 1016.9mb 15f
2:40am 18 26 mph 1016.9mb 15f
2:30am 20 31 mph 1016.9mb 15f
2:20am 21 29 mph 1017.3mb 15f
2:10am 21 26 mph 1016.9mb 15f
2:00am 20 30 mph 1017.3mb 15f
1:50am 18 31 mph 1016.9mb 15f
1:40am 20 31 mph 1016.9mb 15f
1:39am 17 31 mph 1016.9mb 15f
1:30am 21 28 mph 1016.9mb 15f
1:20am 21 29 mph 1016.9mb 15f
1:10am 22 28 mph 1017.3mb 15f
1:00am 23 30 mph 1016.9mb 16f
12:50am 21 29 mph 1017.3mb 15f
12:40am 18 30 mph 1017.3mb 16f
12:33am 17 30 mph 1017.3mb 16f
12:30am 17 30 mph 1017.3mb 16f
12:20am 17 30 mph 1017.3mb 16f
12:10am 20 29 mph 1017.3mb 16f
12:00am 17 32 mph 1017.3mb 16f
Thu 02/11 11:50pm 23 32 mph 1017.6mb 17f
11:40pm 17 34 mph 1017.6mb 17f
11:33pm 18 30 mph 1017.6mb 17f
11:30pm 18 32 mph 1017.6mb 17f
11:20pm 18 34 mph 1017.6mb 17f
11:10pm 22 31 mph 1017.9mb 17f
11:00pm 21 36 mph 1017.9mb 17f
10:50pm 24 36 mph 1017.9mb 17f
10:40pm 18 31 mph 1017.9mb 18f
10:32pm 20 29 mph 1017.9mb 18f
10:30pm 24 37 mph 1017.9mb 18f
10:20pm 22 36 mph 1017.9mb 18f
10:10pm 24 38 mph 1017.9mb 18f
10:00pm 28 36 mph 1017.9mb 18f
9:50pm 26 38 mph 1018.3mb 19f
9:40pm 24 36 mph 1017.9mb 19f
9:30pm 26 29 mph 1018.3mb 19f
9:20pm 25 38 mph 1018.3mb 19f
9:10pm 25 33 mph 1018.3mb 19f
9:00pm 26 37 mph 1018.3mb 19f
8:50pm 21 36 mph 1018.3mb 20f
8:40pm 26 36 mph 1018.3mb 20f
8:30pm 28 38 mph 1018.3mb 20f
8:29pm 24 31 mph 1018.3mb 20f
8:20pm 25 36 mph 1017.9mb 21f
8:10pm 20 36 mph 1018.3mb 20f
8:00pm 24 32 mph 1018.3mb 20f
7:50pm 21 36 mph 1017.9mb 20f
7:40pm 23 34 mph 1017.9mb 20f
7:30pm 20 30 mph 1018.3mb 20f
7:29pm 14 30 mph 1018.3mb 20f
7:20pm 17 29 mph 1018.3mb 19f
7:10pm 20 37 mph 1018.3mb 19f
7:00pm 17 34 mph 1018.3mb 20f
6:50pm 17 37 mph 1018.6mb 19f
6:40pm 14 29 mph 1018.6mb 19f
6:30pm 17 26 mph 1018.6mb 19f
6:20pm 17 29 mph 1018.6mb 19f
6:17pm 13 29 mph 1019mb 18f
6:10pm 10 20 mph 1019mb 16f
6:00pm 5 16 mph 1019mb 15f
5:50pm 10 16 mph 1019.3mb 14f
5:40pm 6 15 mph 1019.3mb 14f
5:30pm 6 15 mph 1019.3mb 14f
5:20pm 8 17 mph 1019.6mb 15f
5:10pm 15 25 mph 1019.3mb 17f
5:00pm 15 21 mph 1019.3mb 17f
4:50pm 11 22 mph 1019.3mb 17f
4:40pm 11 21 mph 1019.3mb 17f
4:30pm 11 24 mph 1019.6mb 17f
4:20pm 13 22 mph 1019.6mb 18f
4:10pm 13 25 mph 1019.6mb 18f
4:00pm 14 21 mph 1019.6mb 18f
3:40pm 10 23 mph 1020mb 18f
3:30pm 13 23 mph 1020mb 17f
3:20pm 9 26 mph 1020.3mb 17f
3:10pm 15 26 mph 1020.3mb 17f
3:00pm 13 23 mph 1020.7mb 16f
2:50pm 15 28 mph 1020.7mb 17f
2:40pm 16 30 mph 1020.7mb 17f
2:36pm 16 30 mph 1020.7mb 17f
2:30pm 15 28 mph 1020.7mb 17f
2:20pm 16 21 mph 1021mb 17f
2:10pm 15 21 mph 1021mb 17f
2:00pm 14 21 mph 1021mb 16f
1:50pm 10 20 mph 1021.3mb 16f
1:40pm 13 21 mph 1021.3mb 16f
1:30pm 13 18 mph 1021.7mb 15f
1:20pm 10 18 mph 1022mb 15f
1:10pm 14 20 mph 1022mb 15f
1:00pm 11 18 mph 1022.4mb 15f
12:50pm 11 18 mph 1022.4mb 15f
12:40pm 10 18 mph 1022.4mb 15f
12:30pm 10 15 mph 1022.7mb 14f
12:20pm 11 16 mph 1022.7mb 14f
12:10pm 9 18 mph 1022.7mb 14f
12:00pm 10 20 mph 1023mb 14f
11:50am 14 20 mph 1023mb 13f
11:40am 15 25 mph 1023mb 13f
11:30am 16 21 mph 1023.4mb 13f
11:20am 17 21 mph 1023.4mb 14f
11:10am 18 22 mph 1023.4mb 14f
11:00am 17 22 mph 1023.4mb 13f
10:50am 16 22 mph 1023.4mb 13f
10:40am 16 21 mph 1023.4mb 13f
10:30am 13 20 mph 1023.4mb 12f
10:20am 18 23 mph 1023.4mb 12f
10:10am 16 21 mph 1023.4mb 12f
10:00am 9 22 mph 1023.4mb 12f
9:50am 14 28 mph 1023.4mb 12f
9:40am 15 24 mph 1023.4mb 12f
9:30am 16 21 mph 1023.7mb 12f
9:20am 14 20 mph 1023.4mb 11f
9:10am 14 23 mph 1023.7mb 11f
9:00am 15 21 mph 1023.4mb 11f
8:50am 15 22 mph 1023.4mb 11f
8:40am 17 24 mph 1023.4mb 11f
8:30am 11 23 mph 1023.7mb 11f
8:20am 14 23 mph 1023.4mb 11f
8:10am 14 21 mph 1023.4mb 11f
8:00am 11 21 mph 1023.4mb 11f
7:50am 13 20 mph 1023.4mb 11f
7:40am 13 22 mph 1023.4mb 11f
7:30am 16 21 mph 1023.7mb 11f
7:20am 16 21 mph 1023.4mb 11f
7:10am 14 21 mph 1023.4mb 11f
7:00am 15 20 mph 1023.4mb 10f
6:50am 13 20 mph 1023.7mb 11f
6:40am 11 21 mph 1023.4mb 10f
6:30am 13 20 mph 1023mb 11f
6:20am 14 20 mph 1023mb 10f
6:10am 11 18 mph 1023mb 10f
6:00am 10 18 mph 1023mb 10f
5:50am 13 20 mph 1023mb 11f
5:40am 10 15 mph 1023mb 10f
5:30am 14 21 mph 1023mb 11f
5:20am 13 18 mph 1023mb 10f
5:10am 11 18 mph 1023.4mb 11f
5:00am 11 20 mph 1023mb 11f
4:50am 10 17 mph 1023mb 11f
4:40am 9 15 mph 1023mb 10f
4:30am 13 20 mph 1023mb 11f
4:20am 14 20 mph 1022.7mb 11f
4:10am 11 20 mph 1022.7mb 11f
4:00am 13 17 mph 1022.7mb 10f
3:50am 11 17 mph 1022.7mb 10f
3:40am 13 16 mph 1022.7mb 10f
3:30am 10 21 mph 1022.7mb 10f
3:20am 14 20 mph 1022.7mb 10f
3:10am 13 20 mph 1022.7mb 10f
3:00am 13 20 mph 1022.7mb 10f
2:50am 15 20 mph 1022.7mb 10f
2:40am 13 20 mph 1022.7mb 10f
2:30am 14 21 mph 1022.7mb 10f
2:20am 14 22 mph 1022.4mb 10f
2:10am 14 21 mph 1022.4mb 10f
2:00am 11 21 mph 1022.7mb 10f
1:50am 17 22 mph 1022.4mb 10f
1:40am 14 20 mph 1022.7mb 10f
1:30am 14 21 mph 1022.4mb 10f
1:20am 14 21 mph 1022.4mb 10f
1:10am 15 20 mph 1022.4mb 10f
1:00am 17 22 mph 1022.4mb 11f
12:50am 17 23 mph 1022.4mb 10f
12:40am 15 21 mph 1022.4mb 11f
12:30am 15 21 mph 1022.4mb 11f
12:20am 11 23 mph 1022mb 11f
12:10am 16 22 mph 1022mb 11f
12:00am 14 20 mph 1022mb 11f
Wed 02/10 11:50pm 16 22 mph 1022mb 11f
11:40pm 13 22 mph 1021.7mb 11f
11:30pm 14 22 mph 1021.7mb 10f
11:20pm 14 22 mph 1021.7mb 10f
11:10pm 15 20 mph 1021.7mb 11f
11:00pm 14 23 mph 1021.7mb 11f
10:50pm 15 22 mph 1021.7mb 11f
10:40pm 18 24 mph 1021.3mb 11f
10:30pm 17 26 mph 1021.3mb 11f
10:20pm 15 21 mph 1021.3mb 12f
10:10pm 14 20 mph 1021.3mb 11f
10:00pm 15 21 mph 1021.3mb 11f
9:50pm 13 23 mph 1021.3mb 12f
9:40pm 13 25 mph 1021.3mb 12f
9:30pm 16 21 mph 1021mb 12f
9:20pm 15 24 mph 1021mb 12f
9:10pm 17 25 mph 1021mb 12f
9:00pm 21 28 mph 1021mb 13f
8:50pm 15 24 mph 1021mb 12f
8:40pm 17 24 mph 1021mb 12f
8:30pm 16 21 mph 1020.7mb 12f
8:20pm 18 24 mph 1021mb 12f
8:10pm 16 23 mph 1021mb 12f
8:00pm 17 26 mph 1020.7mb 12f
7:50pm 14 23 mph 1021mb 12f
7:40pm 17 22 mph 1020.7mb 12f
7:30pm 13 21 mph 1021mb 12f
7:20pm 15 21 mph 1021mb 12f
7:10pm 16 23 mph 1020.7mb 12f
7:00pm 16 31 mph 1021mb 12f
6:51pm 15 31 mph 1020.7mb 12f
6:50pm 15 20 mph 1020.7mb 12f
6:40pm 18 23 mph 1021mb 12f
6:30pm 16 22 mph 1020.7mb 12f
6:20pm 14 23 mph 1020.7mb 12f
6:10pm 15 22 mph 1020.7mb 11f
6:00pm 14 21 mph 1020.7mb 11f
5:50pm 16 22 mph 1020.7mb 11f
5:40pm 16 24 mph 1020.3mb 11f
5:30pm 14 22 mph 1020.3mb 11f
5:20pm 15 24 mph 1020.3mb 11f
5:10pm 9 22 mph 1020mb 10f
5:00pm 14 22 mph 1020mb 10f
4:50pm 13 20 mph 1020mb 10f
4:40pm 15 23 mph 1019.6mb 11f
4:30pm 15 20 mph 1019.6mb 11f
4:20pm 10 18 mph 1019.6mb 10f
4:10pm 11 21 mph 1019.6mb 10f
4:00pm 10 18 mph 1019.6mb 10f
3:50pm 13 22 mph 1019.6mb 10f
3:40pm 14 21 mph 1019.3mb 10f
3:30pm 10 17 mph 1019.3mb 10f